Location: *
(51.0333°S, 178.4667°E)
Time: 16:25:29
(UTC+00:00)

ATLAS CENTAUR R/B - Pass Details

Date: 15 November 2019
Orbit: 457 x 691 km, 64.7° (Epoch: 30 November)

Event Time Altitude Azimuth Distance (km) Brightness Sun altitude
Rises 08:50:59 0° 264° (W) 2,540 5.5 -10.2°
Reaches altitude 10° 08:53:43 10° 241° (WSW) 1,692 5.1 -10.4°
Maximum altitude 08:56:10 16° 201° (SSW) 1,376 4.4 -10.7°
Drops below altitude 10° 08:58:42 10° 160° (SSE) 1,764 4.3 -11.0°
Sets 09:01:39 0° 138° (SE) 2,705 5.0 -11.3°
